Location: Wavehorne
(51.0500°N, 0.8333°E)
Time: 12:58:43
(UTC+00:00)

NOSS 8 (F) - Pass Details

Date: 20 June 2021
Orbit: 377 x 1789 km, 63.3° (Epoch: 31 July)

Event Time Altitude Azimuth Distance (km) Brightness Sun altitude
Exits shadow 00:32:35 37° 180° (S) 643 4.6 -15.1°
Maximum altitude 00:33:26 50° 130° (SE) 504 4.4 -15.1°
Drops below altitude 10° 00:36:19 10° 53° (NE) 1,398 7.6 -15.0°
Sets 00:38:19 0° 48° (NE) 2,271 8.8 -15.0°
